Flag for U.S.A. Weather past 2 weeks in Brockton, Massachusetts, U.S.A.

Now
12 °F

Cold.


Feels Like: N/A
Forecast: 14 / 24 °F
Wind: N/A

Location: East Milton

Current Time: Jan 28, 2015 at 9:40:27 AM

Latest Report: Jan 28, 2015 at 8:54 AM


Visibility: N/A

Pressure: 29.93 "Hg

Humidity: 67%

Dew point: 3 °F

Location of BrocktonLocation

Historic Weather in Brockton — Graph

°F

Brockton temperature yesterday

Maximum temperature yesterday: 15 °F (at 12:54 AM)
Minimum temperature yesterday: 11 °F (at 9:54 PM)
Average temperature yesterday: 13 °F

Past Weeks' High & Low Weather Summary

 TemperatureHumidityPressure
High50 °F (Jan 18, 1:54 PM)100% (Jan 18, 10:54 PM)30.66 "Hg (Jan 18, 10:54 PM)
Low6 °F (Jan 17, 5:54 AM)28% (Jan 17, 1:54 PM)29.16 "Hg (Jan 24, 4:54 PM)
Average24 °F72%29.98 "Hg
* Reported Jan 13 7:54 AM — Jan 28 7:54 AM, Brockton, Weather by CustomWeather, © 2014

Note: Actual official high and low records may vary slightly from our data, if they occured in-between our weather recording intervals... More about our weather records

Advertising

Brockton weather history for previous 24 hours

 ConditionsComfort  
Time TempWeatherWind HumidityBarometerVisibility
7:54 AM
Jan 28
10 °FFrigid.N/A73%29.90 "HgN/A
6:54 AM9 °FFrigid.N/A73%29.86 "HgN/A
5:54 AM8 °FFrigid.N/A79%29.83 "HgN/A
4:54 AM9 °FFrigid.N/A80%29.78 "HgN/A
3:54 AM9 °FFrigid.N/A80%29.75 "HgN/A
2:54 AM11 °FCold.N/A77%29.74 "HgN/A
1:54 AM11 °FCold.N/A77%29.70 "HgN/A
12:54 AM11 °FCold.N/A77%29.67 "HgN/A
11:54 PM
Jan 27
11 °FCold.N/A81%29.67 "HgN/A
10:54 PM11 °FCold.N/A81%29.65 "HgN/A
9:54 PM11 °FCold.N/A77%29.62 "HgN/A
8:54 PM12 °FCold.N/A77%29.61 "HgN/A
7:54 PM12 °FCold.N/A84%29.58 "HgN/A
6:54 PM13 °FCold.N/A84%29.56 "HgN/A
5:54 PM15 °FCold.N/A87%29.54 "HgN/A
4:54 PM15 °FCold.N/A83%29.51 "HgN/A
3:54 PM15 °FCold.N/A80%29.49 "HgN/A
2:54 PM14 °FCold.N/A87%29.49 "HgN/A
1:54 PM13 °FCold.N/A88%29.48 "HgN/A
12:54 PM13 °FCold.N/A92%29.46 "HgN/A
11:54 AM13 °FCold.N/A92%29.48 "HgN/A
10:54 AM13 °FCold.N/A92%29.49 "HgN/A
9:54 AM13 °FCold.N/A88%29.49 "HgN/A
Weather by CustomWeather, © 2014

See weather overviewHow to use our weather pages